Wind_Speed
14 14 15 16 16 17 17 17 18 20 20 20 20 21 21 21 21 21 20 20 20 19 19 19 20 20 20 19 19 20 21 20 21 21 21 21 21 22 22 23 25 25 27 28
13 14 15 15 15 16 16 16 17 19 19 19 19 19 19 19 19 19 19 19 20 19 19 19 19 19 18 19 19 20 20 20 20 20 20 20 20 21 22 23 23 25 26 27
12 14 13 13 14 14 14 15 15 17 17 17 17 18 18 18 18 18 18 19 20 19 18 19 19 19 19 19 20 21 20 20 20 20 19 19 19 21 22 22 23 24 25 26
11 11 12 12 13 12 13 14 15 15 13 15 15 15 18 18 19 18 19 19 19 19 19 19 19 19 20 21 21 21 21 21 20 20 20 20 20 21 22 23 23 23 24 26
11 11 11 12 12 12 13 13 14 14 13 14 14 15 17 18 18 18 18 19 19 19 19 20 20 20 21 22 22 21 21 21 20 20 20 21 21 21 22 22 22 23 23 24
11 11 12 12 13 13 13 13 13 13 12 13 14 14 16 18 17 17 18 18 18 19 19 20 20 21 21 21 21 22 22 21 21 21 21 21 21 22 23 23 23 23 24 24
10 11 12 12 13 13 13 11 11 12 13 14 15 14 15 16 16 17 17 17 18 19 20 20 20 21 21 21 21 21 21 20 20 21 21 22 22 23 24 24 24 24 24 25
10 12 13 13 13 13 13 13 12 12 13 13 16 16 16 15 16 17 17 18 19 19 20 21 22 22 23 23 22 22 21 22 22 22 22 23 24 25 25 25 26 26 26 27
11 13 12 13 13 13 14 14 13 13 13 13 15 16 16 16 16 16 17 18 19 20 21 22 22 23 23 24 24 24 24 24 24 24 25 26 27 27 27 27 28 28 28 28
12 11 12 12 13 14 15 14 14 12 13 13 13 14 15 15 15 15 17 17 19 20 21 22 23 24 24 24 24 25 25 26 26 26 27 27 28 28 28 28 29 29 30 30
12 12 12 13 14 14 15 15 15 14 14 13 13 14 15 15 15 16 17 18 20 21 22 23 23 24 25 25 25 25 26 26 27 27 27 27 27 28 29 29 29 29 30 30
13 13 14 14 14 14 15 15 14 14 14 14 14 15 16 15 16 16 17 19 20 21 22 22 24 24 25 26 26 26 26 26 27 27 27 27 28 28 29 29 29 29 30 30
13 14 14 14 14 14 15 15 15 14 14 14 14 16 16 16 16 17 18 19 20 22 22 23 24 24 25 25 25 25 26 27 27 27 27 27 27 27 28 28 29 29 28 28
13 14 14 15 15 14 14 15 15 15 14 15 15 15 16 16 17 18 19 19 20 21 22 23 23 24 24 25 25 26 26 27 26 26 26 27 27 28 27 27 27 27 26 26
13 14 15 15 15 14 15 15 16 16 15 15 14 16 16 17 17 18 19 19 20 21 22 23 24 25 25 26 26 26 26 27 26 27 27 27 27 27 26 26 26 25 25 25
12 13 13 14 14 14 15 16 16 16 16 15 15 16 17 17 18 19 19 20 21 22 23 24 24 25 25 25 26 26 26 25 25 26 26 26 26 26 25 24 24 24 24 24
10 11 11 11 12 13 14 14 15 15 15 16 16 17 18 18 19 19 20 21 22 23 23 23 24 25 25 25 25 25 25 25 25 25 25 25 25 24 23 22 22 22 22 21
8 9 9 9 10 11 11 12 13 15 15 15 16 17 18 19 19 20 20 21 21 22 22 23 23 24 24 24 24 23 23 23 23 23 23 23 22 21 20 20 19 20 20 19
4 6 6 6 7 9 9 10 11 13 14 15 16 16 17 19 20 20 20 20 20 21 21 21 21 22 22 22 21 21 22 21 21 21 21 20 20 19 18 17 17 17 17 17
2 3 4 5 6 7 8 8 9 11 12 14 15 16 17 18 19 19 18 18 18 18 19 20 20 20 20 19 19 19 19 18 19 18 18 18 17 17 16 16 15 15 14 14
1 1 1 2 3 4 6 7 8 9 11 13 14 15 16 16 17 16 16 16 17 17 17 18 18 17 17 17 17 17 16 16 16 16 16 15 15 14 14 14 14 13 12 12
2 1 0 0 2 4 5 6 7 9 11 12 14 14 15 15 15 14 15 15 15 16 15 15 15 16 16 16 15 15 15 14 14 13 13 12 12 12 11 10 10 10 10 9
2 1 1 1 2 4 5 7 8 9 10 11 12 12 13 13 13 13 13 13 13 14 14 14 14 14 14 14 13 13 12 11 11 10 9 9 9 8 8 7 7 7 6 6
3 2 2 2 3 5 6 8 9 9 10 10 11 11 12 12 11 11 12 11 11 11 12 12 12 12 12 12 11 11 9 8 7 7 6 6 5 5 5 4 5 5 5 6
3 3 3 4 5 6 7 8 9 9 9 9 10 11 11 11 11 10 10 10 10 10 10 10 9 9 8 8 7 6 4 3 3 3 3 3 2 2 3 3 3 4 5 6
3 4 4 5 6 6 8 9 9 10 9 10 10 11 11 11 10 10 10 9 8 8 8 7 7 6 5 5 4 2 2 2 1 1 1 1 2 3 3 4 4 5 5 6
Wind_Direction
240 237 236 235 233 235 237 235 238 241 244 243 243 245 248 250 252 254 256 257 259 263 267 271 275 275 275 275 274 272 271 271 268 268 268 263 261 258 257 259 258 255 255 256
238 235 235 236 236 237 236 234 237 243 245 244 244 245 247 250 254 256 255 257 260 264 268 270 274 274 273 273 273 272 270 269 269 270 270 264 258 257 257 259 259 258 259 259
231 236 234 234 233 233 233 230 235 243 245 245 244 247 248 250 253 254 256 258 260 263 264 268 273 272 270 270 273 272 269 268 269 270 271 267 263 258 257 260 261 261 259 258
232 236 234 232 230 228 230 231 233 239 239 244 243 246 254 252 254 254 256 258 258 260 263 267 270 269 267 268 271 270 267 266 268 269 269 266 265 265 263 263 263 263 261 260
233 232 228 225 226 222 224 230 233 236 235 239 243 239 252 253 252 254 256 255 255 258 264 267 268 269 268 269 268 269 267 268 268 267 268 268 267 268 267 268 267 266 265 263
235 230 225 221 224 223 225 228 231 235 237 242 243 240 250 254 252 252 253 253 253 258 263 268 270 269 269 267 268 267 268 271 272 269 267 267 268 271 271 271 271 269 267 267
238 233 228 227 226 226 225 222 231 234 237 241 246 241 246 250 249 250 251 253 256 261 264 269 271 269 269 268 268 267 268 272 273 270 268 269 270 273 273 271 272 272 271 270
238 239 235 228 226 229 227 221 222 231 237 244 251 247 251 254 252 251 251 254 260 263 266 271 273 275 273 271 271 271 270 272 276 275 274 273 273 274 273 272 272 272 271 269
231 237 240 234 229 227 226 226 228 234 242 245 252 255 257 257 255 253 254 256 260 265 269 273 275 276 275 272 273 273 274 275 275 275 276 276 275 276 275 273 272 271 270 270
231 234 237 235 231 229 227 231 233 233 241 247 255 258 260 258 255 256 259 260 264 268 272 273 274 275 274 275 273 273 275 275 275 276 278 278 277 276 277 276 275 273 272 270
236 238 239 239 233 231 234 235 236 236 239 244 253 257 259 258 257 260 263 265 267 270 273 274 276 275 273 274 274 276 276 275 276 277 278 278 277 277 277 277 276 275 274 273
236 237 239 238 239 234 230 234 238 241 246 249 256 260 261 262 261 264 266 268 269 271 273 275 275 276 276 276 275 276 277 277 277 277 278 278 279 279 278 277 276 276 276 274
240 239 242 242 241 238 236 236 237 240 247 253 256 263 265 264 266 268 271 273 273 273 272 274 276 278 279 279 278 278 278 277 277 277 279 279 279 279 278 278 276 276 275 274
241 238 237 240 242 243 241 241 238 241 247 256 257 261 265 266 268 272 272 274 275 276 276 278 279 281 283 282 280 279 279 279 278 278 278 278 278 279 279 279 278 276 275 275
242 240 239 240 242 245 243 242 241 244 248 253 257 260 265 270 273 276 278 277 278 278 280 280 280 281 283 282 281 280 280 278 276 277 278 279 279 280 280 279 278 277 276 275
243 243 244 245 246 247 245 244 247 249 250 255 259 263 268 273 275 278 280 281 282 282 282 281 281 282 282 283 283 282 281 279 277 277 278 278 280 281 280 278 278 277 275 275
240 240 242 245 248 250 247 249 252 254 254 259 263 268 273 276 278 279 280 282 284 284 284 283 283 283 283 284 285 282 280 278 277 276 276 278 279 279 279 277 276 276 273 272
239 238 242 248 246 246 252 249 252 256 261 264 269 273 276 280 281 283 284 284 284 284 284 285 285 285 285 284 284 283 281 278 278 277 277 277 278 278 277 276 273 273 272 272
230 234 241 242 247 251 252 254 261 263 264 267 271 277 282 285 287 288 287 286 287 287 287 287 288 289 287 285 284 283 281 280 281 281 282 281 280 280 278 275 273 272 271 271
204 221 232 239 246 255 258 259 269 273 274 277 280 283 286 290 290 292 292 292 294 294 292 291 291 290 289 288 288 287 284 282 283 283 283 283 282 277 275 274 272 271 269 268
157 189 220 243 253 270 274 276 280 283 287 289 289 291 294 294 294 295 295 296 297 297 296 294 293 291 291 290 290 289 286 284 283 281 281 284 284 278 274 272 269 266 264 263
122 127 161 255 286 293 292 294 297 296 299 299 298 299 300 301 301 300 299 299 299 298 297 297 296 294 293 294 293 292 287 284 282 281 282 283 282 277 271 267 262 263 262 254
86 65 41 6 315 313 312 314 310 309 310 311 312 312 313 311 309 306 305 305 302 300 299 299 298 295 295 294 294 295 293 288 286 285 285 284 281 273 267 260 254 253 246 237
57 40 27 3 336 327 324 325 323 320 322 325 327 326 325 322 318 315 313 312 312 310 308 308 304 301 299 297 297 299 298 292 286 285 282 274 271 266 258 242 233 227 215 211
48 31 8 352 342 337 337 337 337 335 334 335 336 333 332 331 327 325 324 321 320 321 319 318 316 314 311 310 307 305 307 307 298 289 276 268 256 227 199 196 194 190 186 180
25 12 1 354 352 348 350 350 347 344 344 345 346 345 345 344 340 337 334 330 329 330 331 333 334 332 334 340 346 354 6 11 17 45 106 137 161 157 149 145 154 162 165 159
Height
5829 5832 5833 5834 5836 5838 5840 5842 5843 5843 5845 5847 5848 5850 5851 5852 5853 5854 5855 5855 5856 5857 5857 5856 5856 5855 5855 5855 5854 5854 5853 5852 5851 5850 5850 5849 5849 5849 5849 5850 5850 5851 5852 5853
5827 5828 5829 5830 5832 5834 5836 5838 5839 5840 5841 5843 5845 5846 5847 5849 5850 5851 5851 5852 5852 5853 5853 5853 5852 5851 5850 5850 5850 5849 5848 5847 5846 5846 5845 5844 5844 5844 5844 5845 5845 5845 5846 5847
5824 5825 5825 5827 5828 5830 5832 5835 5836 5837 5838 5840 5842 5843 5844 5845 5846 5847 5847 5847 5848 5848 5848 5848 5847 5847 5846 5846 5846 5844 5843 5843 5842 5841 5840 5840 5839 5839 5839 5840 5840 5840 5840 5841
5820 5821 5822 5824 5826 5827 5829 5831 5832 5834 5836 5837 5839 5841 5840 5841 5842 5842 5843 5843 5844 5844 5844 5844 5843 5843 5842 5841 5841 5839 5839 5838 5837 5836 5835 5835 5835 5834 5834 5834 5834 5834 5835 5836
5817 5818 5820 5822 5823 5825 5827 5828 5829 5831 5833 5835 5836 5838 5839 5837 5837 5838 5838 5839 5839 5839 5839 5839 5838 5838 5837 5836 5835 5835 5834 5833 5832 5831 5831 5830 5830 5829 5829 5829 5829 5829 5829 5829
5814 5815 5817 5819 5820 5822 5823 5825 5827 5828 5831 5833 5833 5835 5835 5833 5833 5834 5834 5834 5835 5835 5835 5834 5834 5833 5832 5831 5830 5830 5829 5828 5827 5827 5826 5825 5825 5825 5824 5824 5823 5823 5823 5824
5812 5813 5814 5816 5817 5819 5821 5824 5827 5828 5829 5830 5829 5830 5831 5829 5830 5830 5830 5830 5831 5831 5831 5830 5829 5828 5827 5826 5825 5825 5824 5823 5822 5822 5821 5820 5820 5819 5819 5818 5818 5817 5817 5817
5811 5812 5812 5813 5815 5817 5818 5821 5825 5827 5827 5828 5825 5826 5827 5826 5826 5826 5827 5827 5827 5826 5826 5825 5824 5823 5822 5821 5820 5819 5819 5818 5817 5816 5815 5815 5814 5814 5813 5812 5812 5811 5811 5810
5808 5810 5809 5810 5812 5814 5815 5817 5820 5822 5822 5824 5823 5822 5822 5822 5822 5822 5823 5823 5822 5822 5821 5820 5819 5818 5816 5816 5815 5814 5813 5812 5811 5810 5809 5808 5807 5807 5806 5805 5804 5804 5803 5803
5804 5806 5807 5807 5809 5810 5813 5814 5816 5818 5819 5820 5820 5819 5819 5818 5818 5818 5818 5818 5818 5817 5816 5815 5813 5812 5811 5810 5809 5808 5807 5806 5805 5804 5803 5802 5800 5799 5798 5797 5797 5796 5796 5795
5801 5803 5805 5805 5806 5808 5809 5810 5812 5814 5815 5817 5817 5818 5815 5814 5814 5814 5814 5813 5812 5811 5810 5809 5808 5806 5805 5804 5803 5802 5800 5799 5798 5797 5795 5794 5793 5792 5791 5790 5789 5788 5787 5787
5797 5799 5801 5802 5803 5803 5805 5807 5808 5810 5811 5811 5812 5815 5810 5809 5809 5809 5808 5808 5807 5806 5804 5803 5802 5800 5799 5797 5796 5795 5793 5792 5790 5789 5788 5787 5786 5784 5783 5782 5781 5780 5779 5778
5793 5795 5797 5799 5801 5801 5801 5802 5804 5805 5806 5807 5808 5810 5806 5805 5805 5804 5803 5802 5801 5800 5799 5797 5795 5794 5792 5791 5789 5788 5786 5785 5783 5782 5780 5779 5778 5777 5775 5774 5773 5772 5771 5770
5789 5791 5794 5796 5796 5797 5798 5799 5800 5801 5802 5803 5803 5803 5801 5800 5800 5799 5798 5797 5795 5794 5793 5791 5789 5787 5786 5784 5782 5780 5779 5777 5775 5774 5773 5772 5770 5769 5768 5766 5765 5764 5763 5762
5785 5787 5789 5790 5791 5792 5794 5795 5796 5797 5797 5798 5798 5797 5797 5796 5795 5794 5793 5791 5790 5788 5786 5784 5782 5780 5779 5777 5775 5773 5771 5769 5768 5767 5765 5764 5763 5761 5760 5759 5757 5756 5755 5754
5782 5784 5785 5786 5787 5788 5789 5790 5791 5792 5793 5793 5793 5793 5792 5791 5790 5788 5787 5785 5784 5782 5780 5777 5775 5773 5771 5769 5767 5765 5763 5762 5760 5759 5758 5756 5755 5754 5752 5751 5750 5749 5748 5747
5778 5780 5782 5783 5783 5784 5785 5786 5787 5788 5788 5789 5788 5788 5786 5785 5784 5783 5781 5779 5777 5775 5773 5770 5768 5765 5763 5761 5759 5757 5755 5754 5752 5751 5750 5749 5747 5746 5745 5744 5743 5742 5742 5741
5775 5776 5778 5779 5781 5781 5784 5782 5783 5783 5783 5784 5783 5782 5781 5780 5778 5777 5775 5773 5770 5768 5766 5763 5760 5758 5756 5753 5751 5749 5747 5746 5745 5743 5742 5741 5740 5739 5738 5738 5737 5736 5736 5735
5773 5774 5776 5777 5778 5779 5779 5779 5779 5779 5779 5779 5778 5777 5776 5774 5772 5770 5768 5766 5764 5761 5759 5756 5753 5751 5748 5746 5744 5742 5740 5739 5738 5736 5735 5734 5733 5733 5732 5732 5732 5731 5731 5730
5773 5774 5775 5775 5776 5776 5777 5776 5775 5776 5775 5774 5773 5772 5770 5769 5767 5765 5762 5759 5757 5755 5752 5749 5747 5744 5742 5740 5738 5736 5734 5733 5732 5730 5729 5728 5728 5727 5727 5727 5727 5727 5726 5726
5773 5773 5774 5774 5775 5775 5774 5773 5774 5774 5773 5770 5768 5767 5765 5763 5761 5759 5756 5753 5751 5749 5746 5744 5741 5739 5736 5734 5732 5730 5729 5727 5726 5725 5724 5724 5723 5723 5723 5723 5723 5723 5723 5723
5774 5774 5774 5774 5774 5775 5772 5771 5771 5770 5768 5766 5764 5762 5760 5758 5755 5753 5751 5748 5746 5744 5741 5739 5736 5734 5731 5729 5727 5726 5724 5723 5721 5721 5720 5720 5720 5719 5719 5719 5719 5720 5720 5720
5774 5774 5774 5774 5775 5772 5771 5769 5768 5766 5765 5763 5760 5758 5755 5753 5751 5749 5746 5744 5741 5739 5736 5734 5731 5729 5727 5725 5723 5722 5720 5719 5718 5717 5717 5717 5716 5716 5717 5717 5717 5717 5718 5718
5774 5774 5773 5773 5772 5771 5769 5768 5766 5764 5762 5760 5757 5754 5752 5749 5747 5745 5742 5740 5737 5735 5732 5730 5727 5725 5723 5722 5720 5718 5717 5716 5715 5715 5715 5715 5715 5715 5715 5715 5716 5716 5717 5718
5775 5774 5773 5772 5771 5770 5768 5766 5764 5761 5759 5757 5754 5752 5749 5746 5744 5741 5739 5736 5734 5731 5729 5727 5725 5723 5721 5719 5717 5716 5715 5714 5714 5713 5713 5713 5714 5714 5715 5715 5716 5716 5717 5718
5774 5774 5773 5772 5770 5769 5767 5764 5762 5760 5757 5755 5752 5749 5747 5744 5741 5739 5736 5734 5731 5729 5727 5725 5723 5721 5719 5718 5716 5715 5714 5714 5713 5713 5713 5713 5714 5714 5715 5716 5716 5717 5718 5719